Location: Arleux
(50.3632°N, 2.8721°E)
Time: 15:48:56
(UTC+00:00)

Cosmos 2297 Rocket - Pass Details

Date: 15 December 2019
Orbit: 838 x 845 km, 71.0° (Epoch: 29 January)

Event Time Altitude Azimuth Distance (km) Brightness Sun altitude
Exits shadow 04:09:59 14° 8° (N) 2,219 4.4 -32.4°
Drops below altitude 10° 04:10:51 10° 15° (NNE) 2,471 4.8 -32.3°
Sets 04:13:44 0° 28° (NNE) 3,410 5.7 -31.8°
